Weather History for KCPW - December, 2012

Change the Weather History Date:

Thursday, December 20, 2012

  Actual Average (KALS) Record (KALS)
Temperature  
Mean Temperature 10 °F 17 °F  
Max Temperature 19 °F 34 °F 56 °F (1981)
Min Temperature 0 °F 1 °F -27 °F (1992)
Degree Days  
Heating Degree Days 56 48  
Month to date heating degree days 923  
Since 1 July heating degree days 3098  
Cooling Degree Days 0 0  
Month to date cooling degree days 0  
Year to date cooling degree days 51  
Moisture  
Dew Point -2 °F    
Average Humidity 54    
Maximum Humidity 85    
Minimum Humidity 31    
Precipitation  
Precipitation 0.00 in 0.01 in 0.23 in (2006)
Month to date precipitation 0.24  
Year to date precipitation 7.20  
Snow  
Snow 0.00 in 0.10 in 4.00 in (2006)
Month to date snowfall 3.0  
Since 1 July snowfall 8.8  
Snow Depth -    
Sea Level Pressure  
Sea Level Pressure 30.28 in    
Wind  
Wind Speed 9 mph (SW)    
Max Wind Speed 24 mph    
Max Gust Speed 31 mph    
T = Trace of Precipitation, MM = Missing Value Source: NWS Daily Summary

Daily Weather History Graph

Daily Weather History Graph

Search for Another Location

Airport or City:

Trip Planner

Search our weather history database for the weather conditions in past years. The results will help you decide how hot, cold, wet, or windy it might be!

Date:

Astronomy

Dec. 20, 2012 Rise Set
Actual Time 7:17 AM MST 4:52 PM MST
Civil Twilight 6:48 AM MST 5:21 PM MST
Nautical Twilight 6:15 AM MST 5:54 PM MST
Astronomical Twilight 5:43 AM MST 6:26 PM MST
Moon 12:06 PM MST (12/20) 12:14 AM MST (12/20)
Length of Visible Light 10h 33m
Length of Day
9h 34m
First Quarter, 56% of the Moon is Illuminated
Dec 20
First Quarter
Dec 28
Full
Jan 4
Last Quarter
Jan 11
New
Jan 18
First Quarter

Hourly Weather History & Observations

Time (MST) Temp. Windchill Dew Point Humidity Pressure Visibility Wind Dir Wind Speed Gust Speed Precip Events Conditions
12:24 AM -0.4 °F -15.7 °F -4.0 °F 85% 30.06 in - NW 9.2 mph - N/A   Mostly Cloudy
12:44 AM -0.4 °F -13.4 °F -5.8 °F 78% 30.07 in - WSW 6.9 mph - N/A   Unknown
1:04 AM -0.4 °F -12.0 °F -4.0 °F 85% 30.08 in - NW 5.8 mph 18.4 mph N/A   Unknown
1:24 AM 1.4 °F -13.5 °F -4.0 °F 78% 30.08 in - North 9.2 mph 16.1 mph N/A   Unknown
1:44 AM -0.4 °F -13.4 °F -4.0 °F 85% 30.09 in - ENE 6.9 mph 17.3 mph N/A   Mostly Cloudy
2:04 AM -0.4 °F -13.4 °F -4.0 °F 85% 30.10 in - ENE 6.9 mph - N/A   Mostly Cloudy
2:18 AM 1.4 °F -16.1 °F -4.0 °F 78% 30.11 in - North 12.7 mph 16.1 mph N/A   Unknown
2:44 AM 1.4 °F -12.5 °F -4.0 °F 78% 30.12 in - North 8.1 mph 17.3 mph N/A   Mostly Cloudy
3:04 AM 3.2 °F -9.1 °F -4.0 °F 72% 30.13 in - WNW 6.9 mph - N/A   Unknown
3:24 AM 3.2 °F -10.3 °F -5.8 °F 66% 30.14 in - West 8.1 mph - N/A   Scattered Clouds
3:44 AM 3.2 °F -12.2 °F -9.4 °F 56% 30.14 in - WNW 10.4 mph 18.4 mph N/A   Scattered Clouds
4:04 AM 3.2 °F -7.8 °F -11.2 °F 51% 30.15 in - NW 5.8 mph - N/A   Unknown
4:24 AM 3.2 °F -9.1 °F -11.2 °F 51% 30.16 in - West 6.9 mph - N/A   Scattered Clouds
4:44 AM 5.0 °F -8.1 °F -13.0 °F 43% 30.17 in - WNW 8.1 mph 16.1 mph N/A   Clear
5:04 AM 5.0 °F -8.1 °F -13.0 °F 43% 30.17 in - West 8.1 mph - N/A   Clear
5:24 AM 5.0 °F -6.9 °F -13.0 °F 43% 30.19 in - WSW 6.9 mph - N/A   Clear
5:44 AM 5.0 °F -2.1 °F -14.8 °F 40% 30.19 in - West 3.5 mph - N/A   Scattered Clouds
6:04 AM 6.8 °F -0.1 °F -14.8 °F 37% 30.20 in - WSW 3.5 mph - N/A   Scattered Clouds
6:24 AM 6.8 °F - -14.8 °F 37% 30.22 in - Calm Calm - N/A   Clear
6:44 AM 8.6 °F 0.1 °F -16.6 °F 31% 30.22 in - North 4.6 mph - N/A   Clear
7:04 AM 6.8 °F -8.6 °F -14.8 °F 37% 30.23 in - NNE 11.5 mph 16.1 mph N/A   Clear
7:24 AM 8.6 °F -4.7 °F -14.8 °F 34% 30.24 in - North 9.2 mph 16.1 mph N/A   Clear
7:44 AM 10.4 °F 2.2 °F -14.8 °F 31% 30.24 in - NNE 4.6 mph 16.1 mph N/A   Clear
8:04 AM 8.6 °F -1.3 °F -9.4 °F 44% 30.26 in - West 5.8 mph - N/A   Clear
8:24 AM 10.4 °F -3.3 °F -7.6 °F 44% 30.27 in - SW 10.4 mph - N/A   Clear
8:44 AM 12.2 °F 0.7 °F -7.6 °F 41% 30.29 in - SW 8.1 mph - N/A   Clear
9:04 AM 12.2 °F 4.3 °F -5.8 °F 45% 30.29 in - SW 4.6 mph - N/A   Clear
9:24 AM 12.2 °F 0.7 °F -0.4 °F 57% 30.29 in - SSW 8.1 mph - N/A   Clear
9:44 AM 14.0 °F 0.5 °F -4.0 °F 45% 30.31 in - SW 11.5 mph - N/A   Clear
10:04 AM 14.0 °F -0.2 °F -2.2 °F 49% 30.32 in - SW 12.7 mph - N/A   Clear
10:24 AM 14.0 °F 0.5 °F -0.4 °F 53% 30.32 in - SW 11.5 mph - N/A   Clear
10:44 AM 15.8 °F 5.1 °F -0.4 °F 49% 30.32 in - SSW 8.1 mph - N/A   Clear
11:04 AM 17.6 °F 7.3 °F 1.4 °F 49% 30.32 in - SSW 8.1 mph - N/A   Clear
11:24 AM 17.6 °F 9.3 °F 3.2 °F 53% 30.32 in - SW 5.8 mph - N/A   Clear
11:44 AM 17.6 °F 7.3 °F 3.2 °F 53% 30.32 in - SSW 8.1 mph - N/A   Clear
12:04 PM 17.6 °F 9.3 °F 5.0 °F 58% 30.32 in - SSW 5.8 mph - N/A   Clear
12:24 PM 19.4 °F 10.4 °F 6.8 °F 58% 30.32 in - SSW 6.9 mph - N/A   Clear
12:44 PM 19.4 °F 10.4 °F 8.6 °F 63% 30.31 in - SW 6.9 mph - N/A   Clear
1:04 PM 19.4 °F 9.5 °F 8.6 °F 63% 30.31 in - SSW 8.1 mph - N/A   Clear
1:24 PM 19.4 °F 8.6 °F 5.0 °F 54% 30.31 in - SSW 9.2 mph - N/A   Clear
1:44 PM 19.4 °F 6.6 °F 5.0 °F 54% 30.30 in - SSW 12.7 mph - N/A   Clear
2:04 PM 19.4 °F 6.6 °F 5.0 °F 54% 30.31 in - SW 12.7 mph - N/A   Clear
2:24 PM 19.4 °F 6.0 °F 10.4 °F 68% 30.31 in - SSW 13.8 mph - N/A   Clear
2:44 PM 19.4 °F 7.9 °F 10.4 °F 68% 30.32 in - SSW 10.4 mph - N/A   Clear
3:04 PM 19.4 °F 6.6 °F 8.6 °F 63% 30.32 in - SW 12.7 mph - N/A   Clear
3:24 PM 19.4 °F 7.2 °F 6.8 °F 58% 30.32 in - SSW 11.5 mph - N/A   Clear
3:44 PM 19.4 °F 8.6 °F 6.8 °F 58% 30.33 in - SW 9.2 mph - N/A   Clear
4:03 PM 19.4 °F 9.5 °F 8.6 °F 63% 30.33 in - SW 8.1 mph - N/A   Clear
4:24 PM 19.4 °F 10.4 °F 8.6 °F 63% 30.33 in - SSW 6.9 mph - N/A   Clear
4:44 PM 19.4 °F 11.5 °F 6.8 °F 58% 30.34 in - SW 5.8 mph - N/A   Clear
5:04 PM 19.4 °F 12.8 °F 5.0 °F 54% 30.34 in - WSW 4.6 mph - N/A   Clear
5:24 PM 17.6 °F 8.2 °F 5.0 °F 58% 30.34 in - SW 6.9 mph - N/A   Clear
5:44 PM 17.6 °F 7.3 °F 5.0 °F 58% 30.35 in - SW 8.1 mph - N/A   Clear
6:04 PM 17.6 °F 5.7 °F 3.2 °F 53% 30.35 in - SSW 10.4 mph 18.4 mph N/A   Clear
6:24 PM 15.8 °F 3.4 °F 1.4 °F 53% 30.36 in - SSW 10.4 mph 18.4 mph N/A   Clear
6:44 PM 15.8 °F 2.7 °F -0.4 °F 49% 30.36 in - SW 11.5 mph - N/A   Clear
7:04 PM 15.8 °F 3.4 °F -0.4 °F 49% 30.36 in - SW 10.4 mph 16.1 mph N/A   Clear
7:24 PM 15.8 °F 2.7 °F -0.4 °F 49% 30.36 in - SW 11.5 mph - N/A   Clear
7:44 PM 15.8 °F 2.7 °F -0.4 °F 49% 30.37 in - SW 11.5 mph - N/A   Clear
8:04 PM 15.8 °F 1.4 °F -0.4 °F 49% 30.37 in - SW 13.8 mph - N/A   Clear
8:24 PM 14.0 °F -0.2 °F -0.4 °F 53% 30.37 in - SW 12.7 mph - N/A   Clear
8:44 PM 15.8 °F 2.1 °F -0.4 °F 49% 30.37 in - SW 12.7 mph - N/A   Clear
9:04 PM 14.0 °F -0.2 °F -4.0 °F 45% 30.37 in - SW 12.7 mph - N/A   Clear
9:24 PM 14.0 °F 0.5 °F -2.2 °F 49% 30.38 in - SSW 11.5 mph - N/A   Clear
9:44 PM 14.0 °F -0.8 °F -2.2 °F 49% 30.38 in - SW 13.8 mph - N/A   Clear
10:04 PM 14.0 °F -0.2 °F -2.2 °F 49% 30.38 in - SW 12.7 mph - N/A   Clear
10:24 PM 14.0 °F -0.8 °F -2.2 °F 49% 30.37 in - SW 13.8 mph - N/A   Clear
10:44 PM 14.0 °F -2.5 °F -0.4 °F 53% 30.38 in - SW 17.3 mph - N/A   Clear
11:04 PM 14.0 °F -3.4 °F 1.4 °F 57% 30.37 in - SW 19.6 mph - N/A   Clear
11:24 PM 17.6 °F -0.3 °F -4.0 °F 38% 30.37 in - WSW 24.2 mph 31.1 mph N/A   Clear
11:44 PM 17.6 °F 0.5 °F -5.8 °F 35% 30.38 in - SW 21.9 mph - N/A   Clear